Regional Weather Roundup
Issued by NWS

Home | Current Version | Previous Version | Text Only | Print | Product List | Glossary Off
Versions: 1 2 3 4 5 6 7 8 9 10 11 12 13 14 15 16 17 18 19 20 21 22 23 24 25 26 27

000
ASUS45 KTFX 191210
RWRMT
MONTANA REGIONAL WEATHER ROUNDUP
NATIONAL WEATHER SERVICE GREAT FALLS MT
500 AM MST THU JAN 19 2017

NOTE: "FAIR" INDICATES FEW OR NO CLOUDS BELOW 12000 FEET WITH NO
SIGNIFICANT WEATHER AND/OR OBSTRUCTIONS TO VISIBILITY.

MTZ001>007-043-191300-
WEST OF THE DIVIDE

CITY           SKY/WX    TMP DP  RH WIND       PRES   REMARKS
KALISPELL      CLOUDY    29  28  96 CALM      29.50S FOG
MISSOULA       CLOUDY    29  27  92 CALM      29.56S FOG
BUTTE          CLOUDY    20  15  81 CALM      29.56S
MULLAN PASS    SNOW      31  28  89 VRB6      29.49S VSB 1/2 WCI  25
ANACONDA         N/A     37  25  60 SE10G16   29.53S WCI  30
DEER LODGE       N/A     37  27  65 S12       29.54S WCI  30
EUREKA           N/A     36  34  93 SW3       29.47F
HAMILTON         N/A     39  28  65 S14       29.54S WCI  31
PLAINS           N/A     29  24  81 CALM      29.58R
RONAN            N/A     30  28  92 W2        29.59S
$$

MTZ008-052>055-191300-
SOUTHWEST MONTANA

CITY           SKY/WX    TMP DP  RH WIND       PRES   REMARKS
BOZEMAN        CLOUDY    24  18  77 S8        29.56F WCI  15
DILLON         CLOUDY    34  21  59 W13       29.58F WCI  25
W YELLOWSTONE  CLOUDY    18  16  93 S5        29.72F
ENNIS          MOCLDY    32  23  69 S23G30    29.64S WCI  19
TWIN BRIDGES     N/A     29  17  60 E7        29.64F WCI  22
$$

MTZ009-010-012-014-046-048-049-054-191300-
EAST SLOPES AND CENTRAL MONTANA

CITY           SKY/WX    TMP DP  RH WIND       PRES   REMARKS
CUT BANK       MOCLDY    38  32  79 SW13      29.39S WCI  30
GREAT FALLS    CLOUDY    42  25  50 S20       29.44F
MALMSTROM AFB  CLOUDY    41  28  58 S17       29.44F
HELENA         CLOUDY    24  17  74 SE3       29.52S
AUGUSTA          N/A     34  28  76 S15       29.42S WCI  25
BOWMANS CRNR     N/A     35  24  65 S20       29.42S WCI  23
CHOTEAU          N/A     37  28  70 S9        29.43R WCI  31
CONRAD           N/A     36  31  82 S14       29.48S WCI  27
POWER            N/A     31  25  80 S10       29.42F WCI  22
RAYNESFORD     MOCLDY    45  25  45 S18       29.47F
ULM              N/A     40  27  60 MISG      29.45F
$$

MTZ011-013-016-021-045-047-050-051-191300-
NORTH CENTRAL MONTANA

CITY           SKY/WX    TMP DP  RH WIND       PRES   REMARKS
HAVRE          CLOUDY    34  30  85 CALM      29.42F
LEWISTOWN      CLOUDY    32  26  78 CALM      29.48S
CHINOOK          N/A     30  28  93 E5        29.42F
DENTON         CLOUDY    41  29  63 S14       29.43S
FORT BENTON      N/A     46  27  46 MISG      29.43F
GEYSER         MOCLDY    44  28  52 SW18      29.43F
GRASS RANGE    MOCLDY    42  27  56 W14       29.43S
JUDITH GAP     MOCLDY    36  24  60 SW13      29.50S WCI  28
ROY              N/A     41  28  60 MISG      29.44S
STANFORD       MOCLDY    43  28  55 W16G24    29.44F
WINIFRED         N/A     46  27  49 S10G18    29.45S
$$

MTZ017>020-022>027-061-062-191300-
NORTHEAST MONTANA

CITY           SKY/WX    TMP DP  RH WIND       PRES   REMARKS
GLASGOW        CLOUDY    23  19  85 E5        29.46S
JORDAN           N/A     19  15  84 CALM      29.46S
SIDNEY         CLOUDY    19  16  88 SW12      29.51F WCI   7
WOLF POINT     CLOUDY    10   6  84 SW3       29.49S
PLENTYWOOD       N/A     28  25  86 CALM      29.46F
POPLAR           N/A     19  18  93 N3        29.49S
$$

MTZ028>42-056>058-191300-
SOUTHCENTRAL AND SOUTHEAST MONTANA

CITY           SKY/WX    TMP DP  RH WIND       PRES   REMARKS
BAKER          CLOUDY    16  11  80 W7        29.51F WCI   6
BILLINGS       CLOUDY    33  20  58 SW16      29.51S WCI  23
LIVINGSTON     CLOUDY    42  18  37 SW29G52   29.53F
MILES CITY     CLOUDY    21  15  78 S7        29.51F WCI  12
BIG TIMBER     PTCLDY    41  18  38 W21G28    29.55R
FORSYTH          N/A     25  19  80 CALM      29.50F
HARLOWTON      MOCLDY    37  22  54 W18       29.50F WCI  27
LAUREL           N/A     35  18  50 S13       29.55R WCI  26
$$

REGIONAL REPORTS...DAKOTAS

CITY           SKY/WX    TMP DP  RH WIND       PRES   REMARKS
WILLISTON      CLOUDY    19  17  92 CALM      29.49F
MINOT          CLOUDY    25  21  85 E7        29.48S WCI  17
DICKINSON      CLOUDY    23  16  74 W6        29.48S WCI  16
BEACH            N/A     23  18  80 CALM      29.52S
CROSBY           N/A     27  23  86 S15       29.48S WCI  15
TIOGA            N/A     23  23 100 NW5       29.50S
WATFORD CITY     N/A     18  16  93 CALM      29.51S
BISMARCK       CLOUDY    14  11  87 E5        29.55F
GRAND FORKS    CLOUDY    25  19  78 S10       29.59S WCI  15
FARGO          FOG       25  24  96 SE12      29.63F VSB 3/4 WCI  14
BUFFALO SD       N/A     32  20  61 W3        29.44F
RAPID CITY     CLOUDY    26  18  71 CALM      29.52F
$$

REGIONAL REPORTS...WYOMING/IDAHO/WASHINGTON

CITY           SKY/WX    TMP DP  RH WIND       PRES   REMARKS
GILLETTE       CLOUDY    33  18  53 SW17      29.52F WCI  22
SHERIDAN       CLOUDY    17  12  80 MISG      29.51F
BUFFALO WY     CLOUDY    35  16  45 W7        29.52F WCI  29
CODY           CLOUDY    33  19  56 SE10      29.57F WCI  25
YELLOWSTONE LA   N/A     16  14  92 CALM      29.70F
IDAHO FALLS    LGT SNOW  23  22  96 N6        29.74F FOG     WCI  16
SALMON         CLOUDY    19  16  86 CALM      29.65S
BOISE          LGT RAIN  37  34  89 S7        29.63S WCI  32
SPOKANE        CLOUDY    36  33  89 S10       29.51R WCI  28
$$

REGIONAL REPORTS...ALBERTA

CITY           SKY/WX    TMP DP  RH WIND       PRES   REMARKS
EDMONTON       CLEAR     34  19  55 SW5       29.23F
CALGARY        MOCLDY    32  27  80 N7        29.25F WCI  26
LETHBRIDGE     MOCLDY    36  32  87 SW10      29.31F WCI  28
MEDICINE HAT   PTCLDY    36  32  87 W3        29.32F
WATERTON GATE    N/A     41  30  65 SW17G26     N/A
CARDSTON         N/A     39  30  70 SW7         N/A
MILK RIVER       N/A     34  30  86 S7          N/A  WCI  28
$$

REGIONAL REPORTS...SASKATCHEWAN

CITY           SKY/WX    TMP DP  RH WIND       PRES   REMARKS
SWIFT CURRENT  MOCLDY    37  32  81 SW9       29.36S WCI  31
REGINA         CLEAR     30  27  86 SE7       29.41R WCI  23
SASKATOON      PTCLDY    28  27  93 SW7       29.33R WCI  21
CYPRESS HILLS    N/A     36  27  69 S6          N/A  WCI  31
VAL MARIE        N/A     18  14  86 E3          N/A
ROCKGLEN         N/A     36  28  75 SW12        N/A  WCI  27
ASSINIBOIA       N/A     32  25  74 W12         N/A  WCI  23
$$




USA.gov is the U.S. government's official web portal to all federal, state and local government web resources and services.